STARLINK-31463, 59296

Orbit data source: Space-Track

STARLINK-31463, 59296 is a payload satellite owned by SpaceX/Seattle (US) in LEO that was launched on Sun, 24 Mar 2024 UTC via an FALCON 9 launch vehicle from the Air Force Eastern Test Range (AFETR). Payload-class satellites include a variety of spacecraft equipped with specific instruments for various scientific and technological missions. These include communications satellites like Starlink; space stations such as the ISS; scientific satellites like the Hubble; Earth observation satellites from companies like Planet Labs, Umbra, and HawkEye 360; GPS; miniature CubeSats for education and research; and military/defense satellites.

Loading next visibility...
Identifier
59296, 2024-056A
Orbit
LEO
Country
Flag of USUS
Related business
Manufacturer
SpaceX/Seattle
Mission
Operational Commercial Communications
Bus & Motor
STARLINK V2M, Unknown motor
Mass
730 kg wet, ~700 kg dry
Launch date (UTC)
2024-03-24 (2 years ago)
Launch vehicle
FALCON 9
Launch site
Air Force Eastern Test Range (AFETR)
Object type
Payload
Rocket body
Debris
Shape & HBR
Box + 2 Pan, 17.7 m
Radar Cross Section
33.884 m², Large (>1 m²)

Expand to show TLE details & history
Last TLE update: 2 days ago

TLE from 2 days ago
0 STARLINK-31463
1 59296U 24056A   26170.97768477 -.00000922  00000-0 -23966-4 0  9994
2 59296  43.0085   9.0987 0001779 341.0027  19.0758 15.27582138126840
Epoch: 2026-06-19T23:27Z
TLE epoch observation values (Epoch: 2026-06-19T23:27:51.964Z)
Latitude
-0.00001°
Longitude
108.93325°
Altitude
481.666 km
Speed
7.627 km/s
True Right ascension
00h 36m 23s
True Declination
0° 00' 00"
Sunlit
Object was in daylight at epoch
Visualization orbit readout
Latitude
Unknown
Longitude
Unknown
Altitude
Unknown
Speed
Unknown
Apparent Right ascension
Unknown
Apparent Declination
Unknown
Sunlit
N/A
Visualization observer readout
Local Sidereal Time
21:24:54
Azimuth
Unknown
Elevation
Unknown
Doppler factor
Unknown
Orbital elements
Apogee altitude
486.207 km
Perigee altitude
483.765 km
Semi-major axis
6,863.123 km
Eccentricity
0.00018
Inclination
43.0085°
RAAN
9.0987°
Arg. of periapsis
341.0027°
True anomaly
19.08246°
Mean anomaly
19.0758°
Eccentric anomaly
19.07913°
Mean motion
3.81734 °/min
Orbital period
94.31 mins
BSTAR
-0.000023966
Loading maneuver chart data...
Computing Atmospheric mass density...
Loading historical data...
Loading historical data...
Loading historical data...
Loading historical data...
Loading historical data...
Loading historical data...
Loading historical data...

Documentation

Showing up to 5 results
|